N5CNB Weather Reports


Display with metric or nautical units.
time (UTC)temp
F
wind
direction
speed
MPH
gust
MPH
rain 1hr
in
rain 24hr
in
rain mn
in
humidity
%
barometer
mb
20260510111506 70 120 1.0 4.0 0.00 0.00 0.00 91 1011.7
20260510110017 70 236 1.0 7.0 0.00 0.00 0.00 91 1011.6
20260510104516 70 183 1.0 7.0 0.00 0.00 0.00 91 1011.4
20260510103023 69 216 4.0 11.0 0.00 0.00 0.00 91 1011.4
20260510101521 69 184 2.0 5.0 0.00 0.00 0.00 90 1011.3
20260510100011 68 158 3.0 7.0 0.00 0.00 0.00 91 1011.4
20260510093018 68 204 1.0 3.0 0.00 0.00 0.00 90 1011.2
20260510091522 68 231 0.0 3.0 0.00 0.00 0.00 89 1011.3
20260510090025 68 248 0.0 3.0 0.00 0.00 0.00 89 1011.5
20260510084513 69 171 1.0 2.0 0.00 0.00 0.00 89 1011.6
20260510083017 69 155 0.0 2.0 0.00 0.00 0.00 88 1011.5
20260510081523 69 221 0.0 2.0 0.00 0.00 0.00 88 1011.5
20260510074508 70 202 1.0 4.0 0.00 0.00 0.00 88 1011.5
20260510073015 70 138 0.0 2.0 0.00 0.00 0.00 87 1011.5
20260510071519 70 192 1.0 5.0 0.00 0.00 0.00 87 1011.5
20260510070022 71 158 2.0 4.0 0.00 0.00 0.00 86 1011.7
20260510064506 71 155 0.0 2.0 0.00 0.00 0.00 86 1011.8
20260510063013 71 190 0.0 6.0 0.00 0.00 0.00 85 1011.8
20260510061515 72 134 1.0 5.0 0.00 0.00 0.00 85 1011.9
20260510060023 72 122 1.0 6.0 0.00 0.00 0.00 84 1012.0
20260510054524 72 186 3.0 9.0 0.00 0.00 0.00 83 1011.9
20260510053012 73 200 5.0 10.0 0.00 0.00 0.00 83 1011.8
20260510051512 73 18 2.0 9.0 0.00 0.00 0.00 83 1011.7
20260510050019 73 122 4.0 12.0 0.00 0.00 0.00 82 1011.5
20260510044520 73 94 5.0 17.0 0.00 0.00 0.00 80 1011.5
20260510043026 74 220 6.0 12.0 0.00 0.00 0.00 79 1011.7
20260510041512 73 77 8.0 13.0 0.00 0.00 0.00 82 1011.6
20260510040016 70 219 0.0 0.0 0.00 0.00 0.00 86 1011.2
20260510034524 70 101 0.0 0.0 0.00 0.00 0.00 86 1011.1
20260510033024 70 101 0.0 0.0 0.00 0.00 0.00 85 1011.0
20260510031531 71 101 0.0 0.0 0.00 0.00 0.00 85 1010.8
20260510030012 71 101 0.0 1.0 0.00 0.00 0.00 84 1010.7
20260510024517 72 101 0.0 0.0 0.00 0.00 0.00 84 1010.6
20260510023018 72 202 0.0 0.0 0.00 0.00 0.00 83 1010.4
20260510021533 72 167 0.0 5.0 0.00 0.00 0.00 83 1010.4
20260510020028 73 276 0.0 0.0 0.00 0.00 0.00 82 1009.9
20260510014514 74 248 1.0 2.0 0.00 0.00 0.00 80 1009.7
20260510013018 75 356 1.0 4.0 0.00 0.00 0.00 78 1009.4
20260510011520 77 49 0.0 0.0 0.00 0.00 0.00 76 1009.3
20260510010022 79 49 0.0 0.0 0.00 0.00 0.00 73 1009.2
20260510004523 80 49 0.0 0.0 0.00 0.00 0.00 68 1009.1
20260510003014 80 75 0.0 0.0 0.00 0.00 0.00 67 1009.0
20260510001518 80 49 0.0 1.0 0.00 0.00 0.00 65 1009.1
20260510000021 76 66 0.0 4.0 0.00 0.00 0.00 71 1009.2
20260509234532 75 67 0.0 4.0 0.00 0.00 0.00 74 1008.9
20260509233025 76 356 1.0 4.0 0.00 0.00 0.00 72 1009.2
20260509231515 75 42 0.0 0.0 0.00 0.00 0.00 71 1009.1
20260509230004 75 208 0.0 3.0 0.00 0.00 0.00 72 1009.1
20260509224505 76 222 1.0 9.0 0.00 0.00 0.00 68 1009.2
20260509223008 79 326 0.0 6.0 0.00 0.00 0.00 67 1008.8
20260509221510 81 348 4.0 11.0 0.00 0.00 0.00 71 1009.2
20260509220014 85 359 2.0 5.0 0.00 0.00 0.00 72 1008.3
20260509214505 85 342 0.0 4.0 0.00 0.00 0.00 71 1008.3
20260509213004 88 340 2.0 6.0 0.00 0.00 0.00 67 1008.7
20260509211512 90 356 0.0 0.0 0.00 0.00 0.00 60 1008.5
20260509210012 92 282 0.0 2.0 0.00 0.00 0.00 58 1008.6
20260509204517 91 289 0.0 7.0 0.00 0.00 0.00 59 1008.8
20260509203005 92 210 0.0 5.0 0.00 0.00 0.00 59 1009.0
20260509201507 91 239 0.0 6.0 0.00 0.00 0.00 63 1009.2
20260509200008 88 91 2.0 6.0 0.00 0.00 0.00 65 1009.2
20260509194513 92 281 0.0 6.0 0.00 0.00 0.00 59 1009.4
20260509193018 90 2 0.0 7.0 0.00 0.00 0.00 63 1009.6
20260509191504 91 339 2.0 5.0 0.00 0.00 0.00 63 1009.8
20260509190008 89 311 1.0 4.0 0.00 0.00 0.00 67 1010.0
20260509184517 87 264 0.0 7.0 0.00 0.00 0.00 67 1010.1
20260509183016 86 268 2.0 6.0 0.00 0.00 0.00 70 1010.3
20260509181517 86 236 3.0 9.0 0.00 0.00 0.00 69 1010.4
20260509180004 86 213 3.0 7.0 0.00 0.00 0.00 72 1010.7
20260509174508 85 273 4.0 8.0 0.00 0.00 0.00 73 1010.9
20260509173012 84 127 3.0 9.0 0.00 0.00 0.00 74 1011.1
20260509171524 83 159 2.0 6.0 0.00 0.00 0.00 76 1011.2
20260509170028 82 239 2.0 5.0 0.00 0.00 0.00 75 1011.4
20260509164526 82 190 4.0 6.0 0.00 0.00 0.00 76 1011.4
20260509163010 82 136 2.0 5.0 0.00 0.00 0.00 78 1011.3
20260509151514 79 278 1.0 3.0 0.00 0.00 0.00 83 1011.2
20260509140013 74 210 1.0 3.0 0.00 0.00 0.00 92 1010.4
20260509134517 74 150 0.0 3.0 0.00 0.00 0.00 92 1010.6
20260509133021 74 172 2.0 4.0 0.00 0.00 0.00 93 1011.1
20260509131535 73 121 1.0 4.0 0.00 0.00 0.00 93 1010.8
20260509130031 73 101 4.0 10.0 0.00 0.00 0.00 92 1010.7
20260509124520 73 207 1.0 4.0 0.00 0.00 0.00 93 1011.0
20260509121526 73 87 0.0 0.0 0.00 0.00 0.00 93 1011.2
20260509120025 73 87 0.0 0.0 0.00 0.00 0.00 92 1011.2
20260509114529 73 1 0.0 0.0 0.00 0.00 0.00 92 1010.8
20260509113015 73 360 0.0 2.0 0.00 0.00 0.00 92 1010.9